Back to catalog

HULIANWANG DIGUI-129

AliveCommunicationsLEO
NORAD 67237·PAYLOAD·🇨🇳 China

Launched Dec 25, 2025 from Wenchang Space Launch Site

Loading…

Next Passes (next 24 hours)

TLE

FreshSource: Space-Track

Epoch: Sep 14, 2026, 17:36 UTC

1 67237U 25311B   26257.73391007 -.00000080  00000-0  95963-4 0  9994
2 67237  50.0068 154.4664 0000250 323.7707  36.3148 13.29328266 35254

Track HULIANWANG DIGUI-129 in real time with AllMySat

Download on the App Store